Location: Ballingbuur
(53.0000°N, 5.7667°E)
Time: 21:27:12
(UTC+00:00)

USA 305 - Pass Details

Date: 29 November 2020
Orbit: 565 x 578 km, 54.0° (Epoch: 22 January)

Event Time Altitude Azimuth Distance (km) Brightness Sun altitude
Exits shadow 04:04:51 38° 75° (ENE) 892 4.3 -29.1°
Drops below altitude 10° 04:07:34 10° 81° (E) 1,896 6.5 -28.7°
Sets 04:09:50 0° 82° (E) 2,795 7.7 -28.3°
